Location: Laverne
(36.7100°N, 99.8930°W)
Time: 01:09:13
(UTC-06:00)

Daily predictions for brighter satellites

Satellite Brightness Start Highest point End
(mag) Time Altitude Azimuth Time Altitude Azimuth Time Altitude Azimuth
Cosmos 1844 Rocket 4.1 04:50:13 31° NE 04:50:13 31° NE 04:53:23 10° NE
Milstar 3 4.1 04:54:23 32° S 04:55:16 33° SSE 05:01:12 10° ESE
COSMOS 2406 4.1 05:20:33 30° N 05:22:51 46° ENE 05:28:15 10° SE
Meteor 1-21 Rocket 4.5 05:22:34 32° N 05:25:15 68° E 05:30:56 10° SSE
COSMO-SKYMED 1 3.5 05:33:33 10° SSE 05:37:42 47° ENE 05:39:46 26° NNE
Okean-O 3.3 05:35:26 10° NNE 05:39:47 53° E 05:44:06 10° S
H-2A R/B 4.1 05:39:44 38° WSW 05:44:33 71° S 07:01:01 10° ESE
Cosmos 614 Rocket 3.8 05:45:35 70° NW 05:45:35 70° NW 05:50:23 10° NNE
Cosmos 1709 Rocket 3.9 05:40:41 10° SSW 05:46:56 72° W 05:53:19 10° N
CZ-2C R/B 3.2 05:45:51 10° NNE 05:50:18 47° E 05:54:49 10° S
ISS -1.0 05:56:34 11° S 05:56:34 11° S 05:56:46 10° S
Cosmos 1315 Rocket 3.4 05:53:37 22° N 05:55:57 55° E 05:59:52 10° SSE
Meteor 2-13 Rocket 4.4 05:52:41 10° SSW 05:58:41 58° W 06:04:43 10° N
Lacrosse 5 2.1 06:01:38 45° WSW 06:01:52 45° SW 06:06:39 10° SSE
Shenzhou-11 Module 3.7 06:04:02 25° NNE 06:04:02 25° NNE 06:05:44 10° NE
Landsat 4 3.6 05:59:52 10° SSE 06:03:40 88° ENE 06:04:50 43° NNW
GPS 2-04 Rocket1 3.0 06:03:56 51° SW 06:04:46 65° S 06:09:01 10° E
Feng Yun 1-1 Rocket 4.0 06:01:37 10° N 06:07:01 72° WNW 06:12:21 10° SSW
SKYMED 3 4.4 06:03:20 10° S 06:07:39 76° WSW 06:10:07 25° NNW
CZ-2C R/B 4.0 06:03:45 10° S 06:08:15 47° W 06:08:54 44° WNW
IDEFIX/ARIANE 42P 2.5 06:06:15 10° N 06:11:31 72° WNW 06:16:44 10° SSW
Cosmos 332 Rocket 3.9 06:10:32 13° NNW 06:14:53 77° ENE 06:19:45 10° SSE
Cosmos 2278 Rocket 2.1 06:09:20 10° SSW 06:15:00 89° E 06:20:42 10° NNE
CZ-4C R/B 2.9 06:13:40 17° NW 06:19:48 83° WSW 06:27:55 10° SSE
Cosmos-2242 2.9 06:15:50 10° S 06:20:10 85° W 06:24:29 10° N
Tiangong 2 0.9 06:20:34 62° W 06:21:00 79° NNW 06:24:12 10° ENE
SJ-12 4.2 06:18:32 10° NNE 06:22:39 71° E 06:26:46 10° S
SKYMED 2 3.8 06:21:35 10° S 06:25:44 45° W 06:28:22 20° NW
ATLAS CENTAUR R/B 2.9 06:22:08 10° N 06:25:52 34° NE 06:29:50 10° ESE
Cosmos 1328 3.7 06:22:14 10° N 06:26:15 80° W 06:30:13 10° S
Cosmos 1400 Rocket 4.2 06:28:20 22° WSW 06:28:20 22° WSW 06:30:30 10° SSW
Cosmos 1408 Rocket 3.6 06:22:55 10° N 06:27:18 79° E 06:31:42 10° S
Cosmos 2208 Rocket 4.5 06:23:00 10° NNW 06:28:26 65° ENE 06:33:50 10° SSE
Cosmos 1140 Rocket 4.3 06:28:44 26° WNW 06:28:55 26° WNW 06:33:13 10° N
Cosmos 1844 Rocket 3.7 06:31:58 22° WNW 06:32:10 23° WNW 06:36:30 10° N
Cosmos 2074 Rocket 3.9 06:27:29 10° SSW 06:33:42 74° W 06:39:55 10° N
Cosmos 1850 Rocket 4.2 06:31:13 10° SW 06:36:14 48° WNW 06:41:22 10° N
PAYLOAD A 4.4 06:34:44 10° N 06:39:08 35° WNW 06:43:25 10° SW
Cosmos 2058 3.9 06:36:36 10° N 06:40:42 50° E 06:44:46 10° SSE
Cosmos 2151 3.8 06:41:54 10° N 06:46:08 54° E 06:50:19 10° SSE
Cosmos 1908 4.0 06:42:22 10° S 06:46:12 56° E 06:50:04 10° NNE
Meteor 1-16 Rocket 4.5 06:42:18 10° SSW 06:47:39 43° WNW 06:52:53 10° N
SL-27 R/B 3.3 06:44:24 10° N 06:47:59 53° ENE 06:51:33 10° SSE
DELTA 2 R/B (1) 3.6 06:44:34 18° WNW 06:48:45 76° SSW 06:54:19 10° ESE
Meteor 1-11 4.3 06:46:46 10° NNW 06:52:31 68° W 06:58:16 10° S
Cosmos 1743 Rocket 3.8 06:48:40 10° N 06:52:59 72° E 06:57:19 10° SSE
ORS 1 (USA 231) 4.3 06:51:04 15° WSW 06:53:07 67° SSE 06:55:44 10° ENE
Cosmos 468 Rocket 4.2 06:49:41 10° NNW 06:54:53 74° ENE 07:00:06 10° SSE
Cosmos 1703 3.2 06:52:04 10° N 06:56:01 78° W 06:59:56 10° S
USA 229 DEB 3.7 06:50:14 10° SW 06:56:54 65° NW 07:03:46 10° NNE
USA 229 3.7 06:50:19 10° SW 06:57:01 66° NW 07:03:52 10° NNE
Cosmos 2221 4.0 06:54:34 10° SSE 06:58:33 40° E 07:02:34 10° NNE
NOSS 3-1 (A) 4.5 06:54:14 10° S 06:59:33 47° ESE 07:05:24 10° NE
Cosmos 2082 Rocket 2.9 06:54:06 10° NNW 06:59:37 55° ENE 07:05:06 10° SE
Cosmos 371 Rocket 3.8 06:56:50 10° NW 07:01:21 39° WSW 07:05:51 10° S
CZ-4 R/B 1.9 07:00:25 10° NNE 07:04:30 63° ESE 07:08:28 10° S
Cosmos 1726 3.2 07:01:10 10° S 07:04:47 49° E 07:08:24 10° NNE
CSL-04 Debris 4.4 06:59:19 10° NNE 07:04:50 79° ESE 07:10:19 10° S
Meteor 2-1 Rocket 4.1 06:59:58 10° SSW 07:05:27 80° W 07:11:02 10° N
Cosmos 1570 Rocket 4.3 07:01:15 10° NNW 07:06:15 48° WSW 07:11:14 10° S
COSMOS 2406 4.4 07:02:40 10° NW 07:06:46 21° W 07:10:55 10° SSW
Cosmos 2341 Rocket 4.3 07:00:42 10° S 07:06:52 73° E 07:13:04 10° N
Cosmos 1174 4.2 07:03:58 10° NNW 07:07:54 54° ENE 07:11:09 10° SE
Cosmos 1626 3.0 07:04:56 10° NNW 07:08:12 29° W 07:11:27 10° SSW
SeaSat 1 4.1 07:06:17 10° NE 07:10:55 40° ESE 07:15:31 10° S
Abrixas rocket 3.5 07:08:07 10° NW 07:11:04 31° NNE 07:14:01 10° E
COSMO-SKYMED 1 4.4 07:12:07 10° WSW 07:14:04 13° W 07:16:02 10° WNW
SMAP 3.0 07:10:33 10° N 07:15:12 69° WNW 07:19:48 10° SSW
Cosmos 1484 Rocket 3.1 07:11:53 10° N 07:15:24 40° WNW 07:18:56 10° SW
Cosmos 1763 Rocket 3.9 07:10:35 10° NNW 07:15:39 67° ENE 07:20:44 10° SSE
Okean-O 4.3 07:13:45 10° NW 07:15:46 13° WNW 07:17:47 10° W
Cosmos 2297 3.7 07:14:07 10° SSW 07:19:48 66° WNW 07:25:31 10° NNE
Cosmos 2154 Rocket 4.1 07:17:03 10° SSW 07:23:05 55° W 07:29:11 10° N
Cosmos 1809 Rocket 4.5 07:20:43 10° SSW 07:26:49 67° W 07:32:58 10° N
